,,PA_Meas_PMT16A,,PR_Meas_QMR101_102,,RH_Meas_QMH101,,SR_Meas_QMS101,,TA_Meas_QMH101,,GenWind,,GenWind,
time,status,PA,status,PR,status,RH,status,SR,status,TA,status,DirAvg,status,SpdAvg,
2014-06-06, 00:00:04,VALID,915.5,VALID,0,VALID,83.2401,VALID,0.107441,VALID,22.1201,VALID,142,VALID,0.659375,
2014-06-06, 00:01:04,VALID,915.499,VALID,0,VALID,83.7432,VALID,0,VALID,22.1201,VALID,142,VALID,0.0613281,
2014-06-06, 00:02:04,VALID,915.5,VALID,0,VALID,84.0329,VALID,0,VALID,22.0632,VALID,142,VALID,0.46875,
2014-06-06, 00:03:04,VALID,915.465,VALID,0,VALID,84.3379,VALID,0,VALID,22.042,VALID,142,VALID,0.900781,
2014-06-06, 00:04:04,VALID,915.441,VALID,0,VALID,84.6352,VALID,0,VALID,21.964,VALID,142,VALID,1.08242,
2014-06-06, 00:05:04,VALID,915.436,VALID,0,VALID,84.2997,VALID,0.107441,VALID,21.9444,VALID,140,VALID,1.1207,
2014-06-06, 00:06:04,VALID,915.446,VALID,0,VALID,84.5361,VALID,0.107441,VALID,21.964,VALID,142,VALID,0.996484,
2014-06-06, 00:07:04,VALID,915.391,VALID,0,VALID,84.8791,VALID,0,VALID,21.9461,VALID,142,VALID,0.942187,
2014-06-06, 00:08:04,VALID,915.416,VALID,0,VALID,85.1459,VALID,0,VALID,21.8859,VALID,152,VALID,1.04102,
2014-06-06, 00:09:04,VALID,915.398,VALID,0,VALID,85.4128,VALID,0,VALID,21.8452,VALID,152,VALID,1.01016,
2014-06-06, 00:10:04,VALID,915.368,VALID,0,VALID,85.7863,VALID,0,VALID,21.8485,VALID,145,VALID,0.698828,
2014-06-06, 00:11:04,VALID,915.344,VALID,0,VALID,85.9464,VALID,0,VALID,21.8095,VALID,146,VALID,0.822266,
2014-06-06, 00:12:04,VALID,915.374,VALID,0,VALID,85.8702,VALID,0.107441,VALID,21.79,VALID,146,VALID,1.11563,
2014-06-06, 00:13:04,VALID,915.349,VALID,0,VALID,86.0226,VALID,0,VALID,21.7688,VALID,147,VALID,0.728125,
2014-06-06, 00:14:04,VALID,915.352,VALID,0,VALID,85.9388,VALID,0,VALID,21.7688,VALID,147,VALID,1.13242,
2014-06-06, 00:15:04,VALID,915.337,VALID,0,VALID,86.0455,VALID,0,VALID,21.7705,VALID,147,VALID,1.09883,
2014-06-06, 00:16:04,VALID,915.323,VALID,0,VALID,86.2666,VALID,0,VALID,21.7103,VALID,146,VALID,0.861719,
2014-06-06, 00:17:04,VALID,915.331,VALID,0,VALID,86.2818,VALID,0,VALID,21.7103,VALID,149,VALID,1.00234,
2014-06-06, 00:18:04,VALID,915.32,VALID,0,VALID,86.1446,VALID,0,VALID,21.7103,VALID,141,VALID,1.1418,
2014-06-06, 00:19:04,VALID,915.352,VALID,0,VALID,86.137,VALID,0,VALID,21.7298,VALID,129,VALID,1.18867,
2014-06-06, 00:20:04,VALID,915.339,VALID,0,VALID,85.832,VALID,0,VALID,21.7705,VALID,148,VALID,1.39492,
2014-06-06, 00:21:04,VALID,915.331,VALID,0,VALID,85.9845,VALID,0,VALID,21.79,VALID,141,VALID,0.953125,
2014-06-06, 00:22:04,VALID,915.349,VALID,0,VALID,86.0226,VALID,0,VALID,21.7493,VALID,141,VALID,1.2875,
2014-06-06, 00:23:04,VALID,915.347,VALID,0,VALID,85.8854,VALID,0,VALID,21.7705,VALID,138,VALID,1.40547,
2014-06-06, 00:24:04,VALID,915.321,VALID,0,VALID,85.8397,VALID,0,VALID,21.79,VALID,133,VALID,1.24609,
2014-06-06, 00:25:04,VALID,915.301,VALID,0,VALID,85.9616,VALID,0,VALID,21.7493,VALID,141,VALID,1.24609,
2014-06-06, 00:26:04,VALID,915.285,VALID,0,VALID,85.9007,VALID,0,VALID,21.7705,VALID,133,VALID,1.61484,
2014-06-06, 00:27:04,VALID,915.258,VALID,0,VALID,86.0455,VALID,0,VALID,21.7493,VALID,134,VALID,1.03125,
2014-06-06, 00:28:04,VALID,915.265,VALID,0,VALID,86.015,VALID,0,VALID,21.751,VALID,146,VALID,1.57461,
2014-06-06, 00:29:04,VALID,915.245,VALID,0,VALID,86.2056,VALID,0,VALID,21.7721,VALID,130,VALID,1.15234,
2014-06-06, 00:30:04,VALID,915.217,VALID,0,VALID,86.3123,VALID,0,VALID,21.6908,VALID,139,VALID,1.59883,
2014-06-06, 00:31:04,VALID,915.189,VALID,0,VALID,86.419,VALID,0,VALID,21.6924,VALID,136,VALID,1.4793,
2014-06-06, 00:32:04,VALID,915.207,VALID,0,VALID,86.4572,VALID,0,VALID,21.712,VALID,140,VALID,1.11016,
2014-06-06, 00:33:04,VALID,915.209,VALID,0,VALID,86.5715,VALID,0,VALID,21.6924,VALID,144,VALID,1.40195,
2014-06-06, 00:34:04,VALID,915.206,VALID,0,VALID,86.5105,VALID,0.107441,VALID,21.6924,VALID,134,VALID,1.52031,
2014-06-06, 00:35:04,VALID,915.173,VALID,0,VALID,86.6172,VALID,0.107441,VALID,21.6924,VALID,140,VALID,0.950391,
2014-06-06, 00:36:04,VALID,915.198,VALID,0,VALID,86.5944,VALID,0,VALID,21.6908,VALID,144,VALID,1.05898,
2014-06-06, 00:37:04,VALID,915.203,VALID,0,VALID,86.7468,VALID,0,VALID,21.6924,VALID,127,VALID,0.9125,
2014-06-06, 00:38:04,VALID,915.213,VALID,0,VALID,86.8917,VALID,0.107441,VALID,21.6729,VALID,130,VALID,1.1043,
2014-06-06, 00:39:04,VALID,915.175,VALID,0,VALID,86.6172,VALID,0,VALID,21.6924,VALID,151,VALID,0.827734,
2014-06-06, 00:40:04,VALID,915.195,VALID,0,VALID,86.6782,VALID,0,VALID,21.6713,VALID,138,VALID,1.01289,
2014-06-06, 00:41:04,VALID,915.15,VALID,0,VALID,86.6935,VALID,0,VALID,21.6924,VALID,147,VALID,0.690625,
2014-06-06, 00:42:04,VALID,915.137,VALID,0,VALID,86.7926,VALID,0,VALID,21.6713,VALID,147,VALID,0.807031,
2014-06-06, 00:43:04,VALID,915.146,VALID,0,VALID,86.6782,VALID,0.107441,VALID,21.6729,VALID,154,VALID,1.08984,
2014-06-06, 00:44:04,VALID,915.159,VALID,0,VALID,86.8993,VALID,0,VALID,21.6729,VALID,154,VALID,0.653906,
2014-06-06, 00:45:04,VALID,915.129,VALID,0,VALID,86.8764,VALID,0,VALID,21.6534,VALID,154,VALID,0.955859,
2014-06-06, 00:46:04,VALID,915.128,VALID,0,VALID,86.5868,VALID,0,VALID,21.6534,VALID,168,VALID,1.28203,
2014-06-06, 00:47:04,VALID,915.089,VALID,0,VALID,86.4343,VALID,0,VALID,21.6908,VALID,168,VALID,0.644141,
2014-06-06, 00:48:04,VALID,915.109,VALID,0,VALID,86.5563,VALID,0,VALID,21.7103,VALID,168,VALID,0.643359,
2014-06-06, 00:49:04,VALID,915.129,VALID,0,VALID,86.6172,VALID,0.107441,VALID,21.6713,VALID,167,VALID,0.870703,
2014-06-06, 00:50:04,VALID,915.118,VALID,0,VALID,86.8917,VALID,0,VALID,21.6518,VALID,160,VALID,0.898047,
2014-06-06, 00:51:04,VALID,915.108,VALID,0,VALID,86.8078,VALID,0,VALID,21.6323,VALID,161,VALID,1.1293,
2014-06-06, 00:52:04,VALID,915.112,VALID,0,VALID,86.4724,VALID,0.107441,VALID,21.6713,VALID,145,VALID,0.670703,
2014-06-06, 00:53:04,VALID,915.122,VALID,0,VALID,86.2589,VALID,0,VALID,21.7705,VALID,122,VALID,1.08828,
2014-06-06, 00:54:04,VALID,915.122,VALID,0,VALID,86.4648,VALID,0,VALID,21.751,VALID,123,VALID,0.441016,
2014-06-06, 00:55:04,VALID,915.078,VALID,0,VALID,86.5182,VALID,0,VALID,21.7315,VALID,123,VALID,0.925,
2014-06-06, 00:56:04,VALID,915.077,VALID,0,VALID,86.6249,VALID,0,VALID,21.7315,VALID,123,VALID,0.901953,
2014-06-06, 00:57:04,VALID,915.075,VALID,0,VALID,86.7545,VALID,0,VALID,21.6924,VALID,138,VALID,0.980078,
2014-06-06, 00:58:04,VALID,915.098,VALID,0,VALID,86.9298,VALID,0,VALID,21.6729,VALID,140,VALID,1.19375,
2014-06-06, 00:59:04,VALID,915.061,VALID,0,VALID,87.128,VALID,0.107441,VALID,21.6534,VALID,140,VALID,0.746875,
2014-06-06, 01:00:04,VALID,915.069,VALID,0,VALID,87.3643,VALID,0,VALID,21.6339,VALID,150,VALID,0.496094,
2014-06-06, 01:01:04,VALID,915.056,VALID,0,VALID,87.6845,VALID,0,VALID,21.5737,VALID,150,VALID,0.791797,
2014-06-06, 01:02:04,VALID,915.021,VALID,0,VALID,87.959,VALID,0,VALID,21.5559,VALID,152,VALID,1.01289,
2014-06-06, 01:03:04,VALID,915.02,VALID,0,VALID,88.1953,VALID,0,VALID,21.4957,VALID,154,VALID,1.17539,
2014-06-06, 01:04:04,VALID,915.02,VALID,0,VALID,88.3935,VALID,0,VALID,21.4973,VALID,162,VALID,1.09453,
2014-06-06, 01:05:04,VALID,914.992,VALID,0,VALID,88.5765,VALID,0,VALID,21.4778,VALID,158,VALID,1.28477,
2014-06-06, 01:06:04,VALID,914.998,VALID,0,VALID,88.7594,VALID,0,VALID,21.4567,VALID,155,VALID,0.919141,
2014-06-06, 01:07:04,VALID,915.01,VALID,0,VALID,88.9729,VALID,0.107441,VALID,21.4177,VALID,142,VALID,1.18516,
2014-06-06, 01:08:04,VALID,914.966,VALID,0,VALID,89.194,VALID,0.107441,VALID,21.3786,VALID,163,VALID,0.901172,
2014-06-06, 01:09:04,VALID,914.955,VALID,0,VALID,89.4074,VALID,0,VALID,21.3396,VALID,163,VALID,0.950781,
2014-06-06, 01:10:04,VALID,914.936,VALID,0,VALID,89.5142,VALID,0.107441,VALID,21.3006,VALID,163,VALID,0.903516,
2014-06-06, 01:11:04,VALID,914.921,VALID,0,VALID,89.6514,VALID,0,VALID,21.3217,VALID,162,VALID,0.648438,
2014-06-06, 01:12:04,VALID,914.928,VALID,0,VALID,89.598,VALID,0.107441,VALID,21.3217,VALID,161,VALID,0.903906,
2014-06-06, 01:13:04,VALID,914.915,VALID,0,VALID,89.5751,VALID,0.107441,VALID,21.3201,VALID,161,VALID,0.439453,
2014-06-06, 01:14:04,VALID,914.879,VALID,0,VALID,89.5675,VALID,0,VALID,21.3217,VALID,152,VALID,0.946094,
2014-06-06, 01:15:04,VALID,914.898,VALID,0,VALID,89.5446,VALID,0,VALID,21.3022,VALID,153,VALID,0.786328,
2014-06-06, 01:16:04,VALID,914.912,VALID,0,VALID,89.5294,VALID,0,VALID,21.3429,VALID,153,VALID,0.887109,
2014-06-06, 01:17:04,VALID,914.922,VALID,0,VALID,89.4455,VALID,0,VALID,21.3412,VALID,154,VALID,1.07422,
2014-06-06, 01:18:04,VALID,914.912,VALID,0,VALID,89.3159,VALID,0,VALID,21.3608,VALID,154,VALID,0.8375,
2014-06-06, 01:19:04,VALID,914.884,VALID,0,VALID,89.2778,VALID,0,VALID,21.3803,VALID,154,VALID,0.526563,
2014-06-06, 01:20:04,VALID,914.904,VALID,0,VALID,89.2473,VALID,0,VALID,21.3803,VALID,156,VALID,0.733203,
2014-06-06, 01:21:04,VALID,914.901,VALID,0,VALID,89.0567,VALID,0,VALID,21.3803,VALID,146,VALID,0.848047,
2014-06-06, 01:22:04,VALID,914.866,VALID,0,VALID,88.9348,VALID,0,VALID,21.4209,VALID,149,VALID,0.986328,
2014-06-06, 01:23:04,VALID,914.874,VALID,0,VALID,88.8585,VALID,0,VALID,21.4193,VALID,151,VALID,0.717188,
2014-06-06, 01:24:04,VALID,914.856,VALID,0,VALID,88.8662,VALID,0,VALID,21.4404,VALID,151,VALID,0.805859,
2014-06-06, 01:25:04,VALID,914.864,VALID,0,VALID,88.9805,VALID,0,VALID,21.4193,VALID,151,VALID,0.383984,
2014-06-06, 01:26:04,VALID,914.863,VALID,0,VALID,89.133,VALID,0,VALID,21.3998,VALID,151,VALID,0.635938,
2014-06-06, 01:27:04,VALID,914.859,VALID,0,VALID,89.2397,VALID,0,VALID,21.4014,VALID,151,VALID,0.832812,
2014-06-06, 01:28:04,VALID,914.823,VALID,0,VALID,89.4913,VALID,0,VALID,21.3624,VALID,149,VALID,0.695703,
2014-06-06, 01:29:04,VALID,914.825,VALID,0,VALID,89.6514,VALID,0,VALID,21.3022,VALID,149,VALID,0.593359,
2014-06-06, 01:30:04,VALID,914.823,VALID,0,VALID,89.7581,VALID,0,VALID,21.2827,VALID,149,VALID,0.729688,
2014-06-06, 01:31:05,VALID,914.809,VALID,0,VALID,89.9029,VALID,0,VALID,21.2437,VALID,149,VALID,0.714063,
2014-06-06, 01:32:05,VALID,914.81,VALID,0,VALID,90.0783,VALID,0,VALID,21.2242,VALID,149,VALID,0.719922,
2014-06-06, 01:33:05,VALID,914.78,VALID,0,VALID,90.2155,VALID,0,VALID,21.2258,VALID,149,VALID,0.555078,
2014-06-06, 01:34:05,VALID,914.786,VALID,0,VALID,90.368,VALID,0,VALID,21.1852,VALID,149,VALID,0.891016,
2014-06-06, 01:35:05,VALID,914.768,VALID,0,VALID,90.5357,VALID,0,VALID,21.1673,VALID,160,VALID,0.993359,
2014-06-06, 01:36:05,VALID,914.756,VALID,0,VALID,90.7949,VALID,0,VALID,21.1282,VALID,164,VALID,1.05078,
2014-06-06, 01:37:05,VALID,914.736,VALID,0,VALID,91.0388,VALID,0,VALID,21.0892,VALID,160,VALID,1.17813,
2014-06-06, 01:38:05,VALID,914.713,VALID,0,VALID,91.2828,VALID,0,VALID,21.0307,VALID,163,VALID,1.15273,
2014-06-06, 01:39:05,VALID,914.714,VALID,0,VALID,91.542,VALID,0,VALID,21.0112,VALID,164,VALID,1.49141,
2014-06-06, 01:40:05,VALID,914.694,VALID,0,VALID,91.7859,VALID,0,VALID,20.9511,VALID,169,VALID,1.12148,
2014-06-06, 01:41:05,VALID,914.681,VALID,0,VALID,92.0451,VALID,0,VALID,20.9136,VALID,163,VALID,1.68203,
2014-06-06, 01:42:05,VALID,914.671,VALID,0,VALID,92.2662,VALID,0,VALID,20.8941,VALID,157,VALID,1.09687,
2014-06-06, 01:43:05,VALID,914.666,VALID,0,VALID,92.4415,VALID,0,VALID,20.8551,VALID,161,VALID,1.14766,
2014-06-06, 01:44:05,VALID,914.676,VALID,0,VALID,92.6169,VALID,0,VALID,20.8535,VALID,163,VALID,1.08867,
2014-06-06, 01:45:05,VALID,914.651,VALID,0,VALID,92.6855,VALID,0,VALID,20.8324,VALID,161,VALID,1.16797,
2014-06-06, 01:46:05,VALID,914.621,VALID,0,VALID,92.7236,VALID,0,VALID,20.8535,VALID,160,VALID,1.27383,
2014-06-06, 01:47:05,VALID,914.644,VALID,0,VALID,92.7617,VALID,0.107441,VALID,20.8535,VALID,150,VALID,1.19766,
2014-06-06, 01:48:05,VALID,914.602,VALID,0,VALID,92.7465,VALID,0,VALID,20.8535,VALID,148,VALID,1.34414,
2014-06-06, 01:49:05,VALID,914.605,VALID,0,VALID,92.7312,VALID,0,VALID,20.8519,VALID,154,VALID,1.18906,
2014-06-06, 01:50:05,VALID,914.593,VALID,0,VALID,92.6702,VALID,0,VALID,20.873,VALID,160,VALID,1.51484,
2014-06-06, 01:51:05,VALID,914.591,VALID,0,VALID,92.6245,VALID,0,VALID,20.873,VALID,160,VALID,1.53125,
2014-06-06, 01:52:05,VALID,914.564,VALID,0,VALID,92.5406,VALID,0,VALID,20.891,VALID,160,VALID,0.841016,
2014-06-06, 01:53:05,VALID,914.549,VALID,0,VALID,92.3424,VALID,0,VALID,20.9316,VALID,159,VALID,0.978516,
2014-06-06, 01:54:05,VALID,914.548,VALID,0,VALID,92.1976,VALID,0.107441,VALID,20.9511,VALID,159,VALID,1.27852,
2014-06-06, 01:55:05,VALID,914.527,VALID,0,VALID,92.0527,VALID,0.107441,VALID,20.9706,VALID,178,VALID,1.08945,
2014-06-06, 01:56:05,VALID,914.5,VALID,0,VALID,91.8088,VALID,0,VALID,20.9901,VALID,178,VALID,0.775,
2014-06-06, 01:57:05,VALID,914.482,VALID,0,VALID,91.6868,VALID,0,VALID,20.9885,VALID,174,VALID,0.833203,
2014-06-06, 01:58:05,VALID,914.485,VALID,0,VALID,91.5496,VALID,0,VALID,20.9885,VALID,174,VALID,0.722656,
2014-06-06, 01:59:05,VALID,914.492,VALID,0,VALID,91.4276,VALID,0,VALID,21.008,VALID,170,VALID,0.919531,
2014-06-06, 02:00:05,VALID,914.456,VALID,0,VALID,91.3514,VALID,0.107441,VALID,21.008,VALID,170,VALID,0.578906,
2014-06-06, 02:01:05,VALID,914.48,VALID,0,VALID,91.2675,VALID,0,VALID,21.0291,VALID,170,VALID,0.672656,
2014-06-06, 02:02:05,VALID,914.461,VALID,0,VALID,91.1608,VALID,0,VALID,21.0275,VALID,170,VALID,0.864062,
2014-06-06, 02:03:05,VALID,914.447,VALID,0,VALID,90.9778,VALID,0,VALID,21.0275,VALID,172,VALID,0.80625,
2014-06-06, 02:04:05,VALID,914.455,VALID,0,VALID,90.6653,VALID,0.107441,VALID,21.086,VALID,171,VALID,0.774609,
2014-06-06, 02:05:05,VALID,914.45,VALID,0,VALID,90.4213,VALID,0.107441,VALID,21.1266,VALID,167,VALID,1.09336,
2014-06-06, 02:06:05,VALID,914.434,VALID,0,VALID,90.2003,VALID,0.107441,VALID,21.1445,VALID,166,VALID,1.13281,
2014-06-06, 02:07:05,VALID,914.453,VALID,0,VALID,89.9716,VALID,0,VALID,21.164,VALID,166,VALID,1.01641,
2014-06-06, 02:08:05,VALID,914.436,VALID,0,VALID,89.8191,VALID,0,VALID,21.2047,VALID,166,VALID,0.833594,
2014-06-06, 02:09:05,VALID,914.423,VALID,0,VALID,89.6514,VALID,0.107441,VALID,21.2031,VALID,166,VALID,0.835156,
2014-06-06, 02:10:05,VALID,914.451,VALID,0,VALID,89.4379,VALID,0,VALID,21.2437,VALID,166,VALID,0.707031,
2014-06-06, 02:11:05,VALID,914.417,VALID,0,VALID,89.3083,VALID,0,VALID,21.2811,VALID,166,VALID,0.138281,
2014-06-06, 02:12:05,VALID,914.424,VALID,0,VALID,89.2778,VALID,0,VALID,21.3022,VALID,166,VALID,0.363281,
2014-06-06, 02:13:05,VALID,914.433,VALID,0,VALID,89.255,VALID,0,VALID,21.3022,VALID,166,VALID,0.165234,
2014-06-06, 02:14:05,VALID,914.412,VALID,0,VALID,89.3998,VALID,0.107441,VALID,21.2811,VALID,166,VALID,0,
2014-06-06, 02:15:05,VALID,914.412,VALID,0,VALID,89.5446,VALID,0,VALID,21.2632,VALID,166,VALID,0,
2014-06-06, 02:16:05,VALID,914.388,VALID,0,VALID,89.7124,VALID,0,VALID,21.2437,VALID,166,VALID,0,
2014-06-06, 02:17:05,VALID,914.383,VALID,0,VALID,89.9411,VALID,0.107441,VALID,21.2226,VALID,166,VALID,0,
2014-06-06, 02:18:05,VALID,914.372,VALID,0,VALID,90.0783,VALID,0.107441,VALID,21.2031,VALID,166,VALID,0,
2014-06-06, 02:19:05,VALID,914.392,VALID,0,VALID,90.3604,VALID,0.107441,VALID,21.2031,VALID,166,VALID,0.223828,
2014-06-06, 02:20:05,VALID,914.34,VALID,0,VALID,90.8711,VALID,0,VALID,21.164,VALID,166,VALID,0.505859,
2014-06-06, 02:21:05,VALID,914.359,VALID,0,VALID,91.2828,VALID,0,VALID,21.1266,VALID,166,VALID,0.13125,
2014-06-06, 02:22:05,VALID,914.343,VALID,0,VALID,91.6792,VALID,0,VALID,21.1071,VALID,166,VALID,0.433984,
2014-06-06, 02:23:05,VALID,914.361,VALID,0,VALID,91.9308,VALID,0,VALID,21.0486,VALID,166,VALID,0.320703,
2014-06-06, 02:24:05,VALID,914.33,VALID,0,VALID,92.1823,VALID,0,VALID,20.9495,VALID,166,VALID,0.587109,
2014-06-06, 02:25:05,VALID,914.32,VALID,0,VALID,92.4339,VALID,0.107441,VALID,20.912,VALID,166,VALID,0.819141,
2014-06-06, 02:26:05,VALID,914.337,VALID,0,VALID,92.7389,VALID,0.107441,VALID,20.834,VALID,166,VALID,0.608203,
2014-06-06, 02:27:05,VALID,914.334,VALID,0,VALID,93.0209,VALID,0,VALID,20.795,VALID,166,VALID,0.01875,
2014-06-06, 02:28:05,VALID,914.353,VALID,0,VALID,93.2954,VALID,0.107441,VALID,20.7544,VALID,166,VALID,0.340234,
2014-06-06, 02:29:05,VALID,914.322,VALID,0,VALID,93.4631,VALID,0,VALID,20.7365,VALID,166,VALID,0.211719,
2014-06-06, 02:30:05,VALID,914.318,VALID,0,VALID,93.707,VALID,0.107441,VALID,20.717,VALID,166,VALID,0,
2014-06-06, 02:31:05,VALID,914.32,VALID,0,VALID,93.8976,VALID,0,VALID,20.6975,VALID,166,VALID,0,
2014-06-06, 02:32:05,VALID,914.326,VALID,0,VALID,94.0958,VALID,0,VALID,20.6975,VALID,166,VALID,0.193359,
2014-06-06, 02:33:05,VALID,914.322,VALID,0,VALID,94.5761,VALID,0,VALID,20.678,VALID,166,VALID,0,
2014-06-06, 02:34:05,VALID,914.321,VALID,0,VALID,94.6828,VALID,0,VALID,20.678,VALID,166,VALID,0.0105469,
2014-06-06, 02:35:05,VALID,914.333,VALID,0,VALID,94.7667,VALID,0,VALID,20.699,VALID,166,VALID,0.046875,
2014-06-06, 02:36:05,VALID,914.33,VALID,0,VALID,94.7667,VALID,0.107441,VALID,20.6585,VALID,166,VALID,0,
2014-06-06, 02:37:05,VALID,914.308,VALID,0,VALID,94.82,VALID,0.107441,VALID,20.6374,VALID,166,VALID,0,
2014-06-06, 02:38:05,VALID,914.339,VALID,0,VALID,94.8658,VALID,0,VALID,20.678,VALID,166,VALID,0,
2014-06-06, 02:39:05,VALID,914.343,VALID,0,VALID,94.8505,VALID,0.107441,VALID,20.6585,VALID,166,VALID,0.0355469,
2014-06-06, 02:40:05,VALID,914.355,VALID,0,VALID,94.8353,VALID,0,VALID,20.639,VALID,166,VALID,0.371875,
2014-06-06, 02:41:05,VALID,914.356,VALID,0,VALID,94.8658,VALID,0,VALID,20.6194,VALID,166,VALID,0.319141,
2014-06-06, 02:45:04,VALID,914.376,VALID,0,VALID,95.0259,VALID,0,VALID,20.5804,VALID,166,VALID,0,
2014-06-06, 02:46:04,VALID,914.381,VALID,0,VALID,95.0488,VALID,0,VALID,20.5414,VALID,166,VALID,0,
2014-06-06, 02:47:04,VALID,914.392,VALID,0,VALID,95.0564,VALID,0,VALID,20.5219,VALID,166,VALID,0,
2014-06-06, 02:48:04,VALID,914.39,VALID,0,VALID,95.0869,VALID,0,VALID,20.5024,VALID,166,VALID,0.681641,
2014-06-06, 02:49:04,VALID,914.361,VALID,0,VALID,95.1555,VALID,0,VALID,20.4423,VALID,150,VALID,0.886328,
2014-06-06, 02:50:04,VALID,914.369,VALID,0,VALID,95.247,VALID,0.107441,VALID,20.4228,VALID,139,VALID,0.872266,
2014-06-06, 02:51:04,VALID,914.352,VALID,0,VALID,95.3308,VALID,0.107441,VALID,20.4439,VALID,139,VALID,0.79375,
2014-06-06, 02:52:04,VALID,914.339,VALID,0,VALID,95.3689,VALID,0,VALID,20.465,VALID,139,VALID,0.697656,
2014-06-06, 02:53:04,VALID,914.332,VALID,0,VALID,95.4071,VALID,0,VALID,20.4244,VALID,139,VALID,0.628516,
2014-06-06, 02:54:04,VALID,914.342,VALID,0,VALID,95.4452,VALID,0,VALID,20.4439,VALID,139,VALID,0.502734,
2014-06-06, 02:55:04,VALID,914.306,VALID,0,VALID,95.4147,VALID,0,VALID,20.4439,VALID,139,VALID,0.466797,
2014-06-06, 02:56:04,VALID,914.292,VALID,0,VALID,95.4223,VALID,0,VALID,20.4439,VALID,139,VALID,0.610937,
2014-06-06, 02:57:04,VALID,914.278,VALID,0,VALID,95.4452,VALID,0,VALID,20.4228,VALID,139,VALID,0.880469,
2014-06-06, 02:58:04,VALID,914.3,VALID,0,VALID,95.4147,VALID,0.107441,VALID,20.4618,VALID,139,VALID,0.882422,
2014-06-06, 02:59:04,VALID,914.289,VALID,0,VALID,95.3766,VALID,0,VALID,20.4829,VALID,139,VALID,0.904297,
2014-06-06, 03:00:04,VALID,914.285,VALID,0,VALID,95.2851,VALID,0,VALID,20.5219,VALID,139,VALID,0.923047,
2014-06-06, 03:01:04,VALID,914.277,VALID,0,VALID,95.1707,VALID,0.107441,VALID,20.5609,VALID,139,VALID,0.894531,
2014-06-06, 03:02:04,VALID,914.283,VALID,0,VALID,95.0183,VALID,0.107441,VALID,20.5804,VALID,139,VALID,0.761719,
2014-06-06, 03:03:04,VALID,914.297,VALID,0,VALID,94.8887,VALID,0,VALID,20.5804,VALID,139,VALID,0.426562,
2014-06-06, 03:04:04,VALID,914.279,VALID,0,VALID,94.7591,VALID,0,VALID,20.5804,VALID,139,VALID,0.454688,
2014-06-06, 03:05:04,VALID,914.277,VALID,0,VALID,94.5913,VALID,0.107441,VALID,20.5804,VALID,139,VALID,0.611719,
2014-06-06, 03:06:04,VALID,914.272,VALID,0,VALID,94.4236,VALID,0,VALID,20.5789,VALID,139,VALID,0.478906,
2014-06-06, 03:07:04,VALID,914.261,VALID,0,VALID,94.355,VALID,0,VALID,20.5789,VALID,139,VALID,0.471484,
2014-06-06, 03:08:04,VALID,914.289,VALID,0,VALID,94.2483,VALID,0,VALID,20.5804,VALID,139,VALID,0.708203,
2014-06-06, 03:09:04,VALID,914.274,VALID,0,VALID,94.2026,VALID,0,VALID,20.5594,VALID,139,VALID,0.665234,
2014-06-06, 03:10:04,VALID,914.247,VALID,0,VALID,94.2559,VALID,0.107441,VALID,20.5399,VALID,139,VALID,0.633594,
2014-06-06, 03:11:04,VALID,914.249,VALID,0,VALID,94.3779,VALID,0.107441,VALID,20.5414,VALID,139,VALID,0.728125,
2014-06-06, 03:12:04,VALID,914.24,VALID,0,VALID,94.5685,VALID,0,VALID,20.5219,VALID,139,VALID,0.307031,
2014-06-06, 03:13:04,VALID,914.233,VALID,0,VALID,94.7362,VALID,0,VALID,20.5219,VALID,139,VALID,0.743359,
2014-06-06, 03:14:04,VALID,914.237,VALID,0,VALID,94.82,VALID,0,VALID,20.5024,VALID,139,VALID,0.561328,
2014-06-06, 03:15:04,VALID,914.249,VALID,0,VALID,94.8963,VALID,0,VALID,20.4829,VALID,139,VALID,0.869141,
2014-06-06, 03:16:04,VALID,914.23,VALID,0,VALID,94.9573,VALID,0,VALID,20.4829,VALID,139,VALID,0.666797,
2014-06-06, 03:17:04,VALID,914.263,VALID,0,VALID,95.0488,VALID,0,VALID,20.4829,VALID,139,VALID,0.750391,
2014-06-06, 03:18:04,VALID,914.235,VALID,0,VALID,95.1021,VALID,0.107441,VALID,20.4618,VALID,139,VALID,0.720312,
2014-06-06, 03:19:04,VALID,914.255,VALID,0,VALID,95.125,VALID,0,VALID,20.4829,VALID,139,VALID,0.628906,
2014-06-06, 03:20:04,VALID,914.246,VALID,0,VALID,95.1479,VALID,0,VALID,20.4829,VALID,139,VALID,0.763672,
2014-06-06, 03:21:04,VALID,914.232,VALID,0,VALID,95.1783,VALID,0,VALID,20.5024,VALID,139,VALID,0.746875,
2014-06-06, 03:22:04,VALID,914.242,VALID,0,VALID,95.1555,VALID,0,VALID,20.4813,VALID,139,VALID,0.638672,
2014-06-06, 03:23:04,VALID,914.274,VALID,0,VALID,95.1326,VALID,0,VALID,20.4813,VALID,139,VALID,0.592969,
2014-06-06, 03:24:04,VALID,914.271,VALID,0,VALID,95.1174,VALID,0,VALID,20.5024,VALID,139,VALID,0.5375,
2014-06-06, 03:25:04,VALID,914.253,VALID,0,VALID,95.1021,VALID,0,VALID,20.5024,VALID,139,VALID,0.551953,
2014-06-06, 03:26:04,VALID,914.291,VALID,0,VALID,95.0716,VALID,0,VALID,20.4829,VALID,139,VALID,0.452344,
2014-06-06, 03:27:04,VALID,914.291,VALID,0,VALID,95.0564,VALID,0,VALID,20.4618,VALID,139,VALID,0.497656,
2014-06-06, 03:28:04,VALID,914.292,VALID,0,VALID,95.0488,VALID,0,VALID,20.4634,VALID,139,VALID,0.631641,
2014-06-06, 03:29:04,VALID,914.312,VALID,0,VALID,95.0945,VALID,0,VALID,20.4829,VALID,139,VALID,0.592969,
2014-06-06, 03:30:04,VALID,914.28,VALID,0,VALID,95.1097,VALID,0,VALID,20.5024,VALID,139,VALID,0.357812,
2014-06-06, 03:31:04,VALID,914.289,VALID,0,VALID,95.0716,VALID,0,VALID,20.5024,VALID,139,VALID,0.496094,
2014-06-06, 03:32:04,VALID,914.287,VALID,0,VALID,95.0411,VALID,0,VALID,20.5219,VALID,139,VALID,0.3375,
2014-06-06, 03:33:04,VALID,914.303,VALID,0,VALID,95.0259,VALID,0.107441,VALID,20.5219,VALID,139,VALID,0.397266,
2014-06-06, 03:34:04,VALID,914.299,VALID,0,VALID,95.0106,VALID,0,VALID,20.5414,VALID,139,VALID,0.283203,
2014-06-06, 03:35:04,VALID,914.32,VALID,0,VALID,94.9878,VALID,0,VALID,20.5414,VALID,139,VALID,0.488672,
2014-06-06, 03:36:04,VALID,914.308,VALID,0,VALID,94.942,VALID,0,VALID,20.5414,VALID,139,VALID,0.457031,
2014-06-06, 03:37:04,VALID,914.296,VALID,0,VALID,94.9039,VALID,0,VALID,20.5609,VALID,139,VALID,0.436719,
2014-06-06, 03:38:04,VALID,914.284,VALID,0,VALID,94.8887,VALID,0,VALID,20.5609,VALID,139,VALID,0.588672,
2014-06-06, 03:39:04,VALID,914.308,VALID,0,VALID,94.8353,VALID,0,VALID,20.5804,VALID,139,VALID,0.38125,
2014-06-06, 03:40:04,VALID,914.306,VALID,0,VALID,94.8048,VALID,0,VALID,20.5804,VALID,139,VALID,0.415625,
2014-06-06, 03:41:04,VALID,914.304,VALID,0,VALID,94.7438,VALID,0,VALID,20.5609,VALID,139,VALID,0.317969,
2014-06-06, 03:42:04,VALID,914.325,VALID,0,VALID,94.7667,VALID,0,VALID,20.5414,VALID,139,VALID,0.334375,
2014-06-06, 03:43:04,VALID,914.305,VALID,0,VALID,94.7896,VALID,0,VALID,20.5219,VALID,139,VALID,0.624609,
2014-06-06, 03:44:04,VALID,914.328,VALID,0,VALID,94.8353,VALID,0,VALID,20.5219,VALID,139,VALID,0.539453,
2014-06-06, 03:45:04,VALID,914.353,VALID,0,VALID,94.8658,VALID,0,VALID,20.5219,VALID,139,VALID,0.786328,
2014-06-06, 03:47:04,VALID,914.355,VALID,0,VALID,94.8734,VALID,0,VALID,20.5024,VALID,139,VALID,0.744531,